Theta_e
314 312 311 314 315 315 317 318 319 320 320 322 323 324 323 323 323 325 324 321 316 310 309 311 312 312 313 313 313 314 312 310 310 309 310 310 310 310 312 313 315 315 314 312 310 311 312 313 314 314 316 317 317 318 318 319 318 320 330 331 322 322 322 320 322 316 317 321 314 313 314 315 316 314 314 316 315 315 315 315 316 318 317 317 320 318 314 314
314 313 311 313 313 311 314 314 316 317 316 317 318 319 317 316 316 316 314 311 309 309 311 311 311 312 312 312 313 312 311 310 309 309 311 311 310 311 312 314 315 314 312 311 311 311 312 313 314 314 317 317 316 317 317 318 317 321 329 326 325 331 321 316 318 313 314 317 314 313 314 315 316 314 315 316 315 315 316 315 317 318 318 317 318 318 315 314
314 313 312 313 310 308 309 309 310 310 309 310 310 310 309 309 309 309 308 309 310 311 311 311 311 312 311 312 311 311 310 310 309 310 311 311 310 311 312 315 315 312 311 311 311 311 312 313 314 315 317 316 316 317 317 317 316 317 322 324 329 328 316 313 314 312 314 315 313 313 313 314 315 315 315 316 314 314 315 316 316 317 318 316 317 317 315 314
314 313 312 313 310 307 308 307 308 307 308 308 308 308 308 309 309 309 309 310 311 311 311 311 311 311 311 311 310 310 310 310 310 312 312 310 310 311 313 315 314 312 310 311 311 311 313 313 314 315 316 315 315 316 316 316 316 315 321 328 324 316 314 314 313 314 315 314 314 313 313 314 314 315 314 314 315 315 315 315 316 316 316 316 315 316 315 313
313 313 312 312 310 307 307 307 308 308 308 308 309 309 309 309 310 310 310 310 310 310 310 310 310 310 310 310 310 310 310 310 311 312 312 310 310 312 314 314 312 311 311 311 311 312 314 314 313 314 314 313 314 316 316 315 315 315 316 319 315 311 315 315 313 315 314 314 314 312 314 314 314 315 314 315 318 318 315 316 316 316 315 315 315 315 315 314
313 312 311 311 309 307 308 308 308 309 308 309 309 309 309 310 310 310 310 310 311 310 310 310 310 310 310 310 310 309 309 311 312 312 311 311 311 312 314 313 311 311 311 311 311 313 314 313 313 313 313 312 313 315 315 314 315 317 315 311 312 313 315 314 314 315 314 314 314 312 314 314 313 314 314 314 317 317 315 316 316 315 315 314 315 315 315 315
314 312 310 310 309 308 307 308 308 309 308 309 309 309 309 309 310 310 310 310 310 310 310 310 310 310 310 310 309 309 309 312 314 314 311 311 312 313 314 312 311 311 311 311 311 313 314 313 313 312 313 313 312 312 314 314 313 319 317 311 313 313 313 314 314 314 314 315 314 313 314 314 314 315 313 313 315 315 314 316 315 315 315 314 315 315 314 315
314 312 311 310 309 308 307 308 308 308 309 308 309 309 309 310 310 310 310 310 310 310 310 309 310 309 309 310 309 309 310 312 313 315 311 310 313 313 313 312 311 311 311 311 312 313 313 313 313 312 313 312 312 312 313 313 313 317 317 312 312 313 313 314 314 314 314 315 314 314 314 313 314 314 312 313 315 314 314 316 316 315 315 314 315 315 315 315
315 313 312 310 309 309 307 307 308 308 308 308 309 309 309 310 310 310 310 310 310 310 310 310 309 309 309 309 309 309 310 311 313 314 312 310 312 312 312 311 311 312 311 312 311 312 313 313 313 313 313 311 312 313 312 314 314 314 314 312 312 312 313 313 314 314 314 314 314 314 314 313 313 313 315 315 315 315 315 316 316 316 315 315 315 315 315 315
315 313 312 311 310 309 308 307 308 308 308 309 309 309 310 310 310 310 310 310 310 310 310 310 309 308 308 309 309 309 310 311 312 313 312 311 312 312 312 311 311 312 311 312 312 312 313 313 313 313 314 312 312 312 312 313 315 313 312 312 312 312 313 313 314 314 314 314 314 316 315 313 313 314 317 316 315 315 315 316 316 316 316 315 315 315 315 315
315 313 313 311 310 309 308 307 307 308 308 309 309 309 310 309 310 310 310 310 310 310 310 310 308 307 308 308 308 309 311 312 312 312 313 312 311 312 312 311 312 312 311 313 313 313 313 314 313 313 315 314 313 313 312 312 314 313 313 314 313 312 313 313 313 313 314 314 313 315 314 312 313 315 317 315 315 315 315 316 316 316 316 316 316 316 316 316
315 313 313 311 310 309 308 307 307 308 308 309 309 309 309 310 310 310 310 310 310 310 310 309 308 307 307 308 309 311 313 313 312 312 313 313 311 312 312 311 312 311 312 312 313 313 314 314 314 314 315 313 314 314 314 313 313 313 314 317 315 315 315 312 312 313 313 315 314 313 313 314 315 316 316 314 314 315 315 315 315 315 315 315 316 316 316 316
315 314 313 312 310 309 309 308 307 308 308 308 309 309 309 310 310 310 310 310 310 310 310 309 308 306 307 308 309 311 314 315 314 313 313 313 312 312 312 311 312 311 312 312 313 313 314 315 314 314 314 313 314 314 314 313 312 314 314 317 319 317 316 311 311 313 313 314 313 311 314 319 318 314 313 314 314 314 314 315 315 316 316 315 315 315 316 316
316 314 313 312 310 309 309 308 307 308 308 308 308 309 309 309 309 310 310 310 310 310 310 309 307 306 306 308 310 310 313 316 315 314 313 312 312 312 312 312 312 312 312 311 312 313 314 315 314 315 314 314 314 313 316 314 314 316 312 318 321 315 317 315 310 313 314 314 313 311 314 320 319 313 312 313 313 313 314 315 315 315 315 315 316 315 316 316
316 315 313 312 311 309 309 308 308 307 308 308 308 309 309 309 309 309 310 310 310 310 309 309 307 307 307 308 310 310 312 314 314 314 313 312 312 312 312 312 312 312 312 312 313 313 313 314 314 315 313 314 314 314 319 318 320 320 314 320 319 312 319 319 310 311 314 314 313 312 315 320 319 313 313 314 313 313 314 315 315 315 315 315 315 316 315 315
317 315 314 313 311 310 309 308 308 307 307 308 308 308 308 309 309 309 310 310 310 309 308 308 307 307 307 308 310 311 311 312 313 313 313 312 312 312 312 312 312 312 312 313 313 313 312 314 315 314 313 314 315 317 321 320 323 323 317 321 320 315 318 318 312 310 311 314 313 312 315 320 319 314 314 314 314 314 313 314 315 315 315 315 315 315 315 315
317 315 314 313 312 311 309 308 308 307 307 307 308 308 308 308 309 309 309 309 309 308 307 307 307 307 308 309 312 312 311 311 312 312 312 312 312 312 312 313 313 313 314 314 313 313 313 315 314 314 314 313 314 318 318 316 318 320 318 319 320 318 317 318 317 311 309 313 315 314 315 320 319 313 314 315 313 314 313 314 315 315 315 315 316 315 315 315
316 316 315 313 312 311 310 309 308 308 307 307 308 308 308 308 308 309 309 308 307 307 307 308 307 309 309 310 312 313 312 311 312 312 312 312 312 312 313 314 314 314 314 313 313 313 314 314 313 317 317 313 314 316 318 318 318 318 317 317 316 316 315 318 320 314 312 315 315 316 316 319 320 313 313 315 314 313 314 314 314 315 315 315 316 315 316 316
316 315 315 314 313 312 310 309 308 308 307 307 307 307 307 307 307 307 306 307 308 308 309 309 308 312 312 309 311 314 312 311 312 312 312 312 312 313 314 314 313 314 314 313 314 313 314 313 313 317 318 315 314 314 319 323 321 319 319 322 321 319 317 318 319 312 311 316 317 317 318 319 321 316 313 315 314 312 313 314 314 314 315 314 315 315 315 315
316 315 315 314 313 313 311 309 308 308 307 307 307 307 307 307 308 309 308 308 309 309 310 310 308 311 312 309 311 314 312 312 312 312 312 312 313 315 315 314 314 314 314 316 316 313 314 315 316 317 317 317 316 314 316 317 317 317 319 324 323 320 319 316 317 312 309 315 318 316 318 318 319 318 313 312 313 310 311 312 313 314 314 314 314 314 314 314
316 315 315 315 314 313 311 309 308 307 307 307 307 307 308 308 309 310 309 309 310 310 311 310 308 311 312 309 312 314 312 312 312 312 313 313 314 315 314 314 315 314 313 313 315 313 314 316 317 317 315 314 315 314 315 315 316 317 319 322 320 318 320 315 315 315 309 313 317 314 317 317 318 318 312 309 311 310 311 312 313 314 314 314 314 314 315 314
316 316 316 315 314 313 311 309 308 307 307 307 307 308 308 308 310 309 308 308 309 310 311 310 308 311 312 310 312 314 312 313 312 312 314 313 315 314 313 314 315 315 313 312 314 314 315 317 317 313 309 310 313 314 317 320 321 321 319 320 320 318 318 315 314 316 312 313 318 318 318 318 317 317 312 308 310 311 312 312 313 314 313 313 314 314 314 314
317 316 316 315 314 313 311 309 308 307 307 307 307 308 308 308 310 309 307 308 308 309 311 311 309 311 312 311 313 313 312 312 312 313 314 314 315 313 313 314 314 316 314 315 317 316 316 318 314 308 306 311 314 314 318 319 320 323 321 320 320 317 319 319 315 315 313 312 316 319 317 316 316 318 316 310 308 310 311 312 312 313 313 314 314 314 314 314
317 316 315 315 314 313 311 309 308 307 307 307 307 308 307 309 311 309 308 308 308 309 311 311 309 310 312 312 312 313 312 312 312 313 313 314 314 313 313 313 314 315 314 316 316 315 317 314 308 306 309 315 315 313 317 318 316 320 327 330 326 322 321 319 315 316 315 312 315 316 315 321 325 325 326 317 308 308 310 311 313 314 315 315 315 315 315 315
316 315 315 314 313 312 310 309 308 307 307 307 308 308 307 309 311 308 308 309 309 309 310 311 310 310 312 312 313 313 312 312 312 312 313 314 314 313 312 311 313 315 315 315 313 314 315 309 308 311 313 316 316 315 318 320 316 315 324 330 327 329 324 318 318 320 320 316 313 311 314 330 334 327 328 324 314 311 310 307 310 314 315 313 314 315 315 316
316 315 315 314 313 311 309 308 308 307 307 307 308 308 308 310 310 308 311 313 311 310 309 310 311 311 312 313 313 313 313 313 312 313 313 314 313 312 312 311 311 313 314 313 313 315 313 309 312 317 318 316 315 316 315 318 319 314 316 319 321 328 324 319 319 318 320 316 310 311 315 321 325 321 321 321 318 317 313 308 309 313 314 312 313 314 313 315
316 315 314 313 312 310 308 308 307 306 307 308 309 308 308 310 309 308 312 313 312 310 308 309 310 311 312 313 313 313 314 315 313 312 313 314 313 312 313 312 311 312 311 312 315 314 312 313 315 319 323 319 316 316 314 316 318 314 315 318 323 326 323 324 324 321 320 315 315 321 320 314 317 318 317 318 319 320 320 317 313 311 313 313 313 314 313 314
315 314 314 313 312 310 308 308 307 307 307 308 309 308 308 310 309 310 313 311 310 310 308 308 309 311 312 313 313 312 314 314 313 313 313 313 313 311 313 312 313 315 310 311 318 314 312 317 317 320 324 320 318 318 315 320 323 316 314 319 323 324 326 330 330 327 319 312 318 325 315 313 321 322 319 316 316 318 319 321 315 310 312 314 313 314 314 314
313 313 313 312 311 309 308 307 307 307 308 309 309 308 309 310 309 310 312 309 309 310 308 308 309 311 312 312 312 311 312 312 313 314 312 313 313 311 313 311 310 315 310 311 321 316 311 314 314 318 321 318 318 316 314 325 325 314 311 317 319 321 326 328 327 324 315 312 324 324 313 312 319 325 325 316 314 320 321 321 314 308 312 314 314 314 314 315
311 311 311 310 310 308 308 308 307 307 309 310 310 309 309 310 310 309 308 309 311 310 307 308 310 311 312 312 311 311 312 312 312 313 312 312 313 311 312 310 310 317 318 318 323 317 311 310 311 313 315 314 315 313 311 316 314 310 316 320 318 322 326 328 328 321 311 318 328 320 313 312 312 324 329 317 316 320 319 322 317 309 312 315 315 315 314 315
310 309 309 309 309 308 309 308 307 308 310 311 311 310 310 312 313 310 307 310 314 311 307 308 309 311 312 312 312 312 313 312 311 312 313 312 313 311 311 311 312 317 321 321 321 316 313 314 312 311 310 310 315 316 311 309 309 312 323 323 317 321 323 325 328 318 312 324 324 314 313 312 311 322 327 320 319 317 314 321 322 312 312 316 317 316 315 316
310 309 308 309 309 309 309 308 307 309 311 311 310 309 310 312 311 310 309 310 313 312 310 310 309 311 312 312 313 313 314 314 310 312 315 314 314 313 312 315 317 316 316 318 319 316 316 317 312 310 311 311 318 322 314 313 315 317 320 320 317 320 318 321 327 319 317 322 315 313 315 312 313 318 317 318 320 317 310 312 316 312 311 316 318 317 317 318
311 309 309 310 309 310 310 308 308 310 311 311 310 310 313 313 310 310 310 310 311 311 311 312 310 311 312 311 313 314 314 314 311 311 314 315 314 313 314 316 318 319 317 318 320 317 318 320 314 313 314 311 315 320 317 317 319 316 316 319 320 319 314 319 323 316 316 319 313 311 314 315 317 315 313 316 313 312 309 308 311 312 313 316 317 317 318 318
313 310 310 310 310 311 311 309 309 310 310 310 309 310 313 312 310 311 311 310 312 311 312 313 311 310 312 312 313 313 313 312 312 312 313 314 314 314 315 312 313 321 320 317 318 318 319 321 318 316 315 313 314 316 320 322 318 315 315 315 317 323 322 320 321 319 320 321 315 310 314 322 321 313 313 313 308 309 311 310 311 312 313 316 315 317 318 317
313 311 309 309 311 312 311 309 309 310 310 309 309 309 310 310 311 312 309 311 315 314 312 311 310 310 312 312 312 311 313 313 312 313 313 314 314 313 314 311 311 319 320 315 316 316 316 317 318 314 310 313 315 312 315 320 318 314 312 311 313 321 325 318 314 318 318 317 317 313 317 324 320 313 313 309 306 309 310 311 313 312 314 315 314 316 316 316
313 311 310 309 310 312 311 308 309 310 309 309 309 310 310 309 314 315 310 312 316 312 310 311 311 312 311 311 312 310 311 315 313 313 313 313 313 313 313 312 311 314 315 316 317 315 315 314 315 313 310 311 313 310 309 313 316 314 311 316 317 315 322 319 309 310 311 311 316 316 318 321 315 314 317 312 311 313 311 311 311 312 314 313 315 316 314 314
314 313 312 309 310 312 312 309 309 309 309 309 309 311 310 307 311 315 312 312 313 310 311 312 311 312 312 311 313 312 312 315 313 313 314 312 313 313 313 313 311 311 313 315 316 317 318 317 314 314 314 310 308 309 308 307 312 317 317 319 315 309 317 320 313 316 316 314 318 315 314 318 315 316 320 314 312 315 316 313 309 311 314 313 315 315 312 313
315 315 314 311 310 313 313 310 309 309 309 309 309 313 314 308 308 314 313 309 310 312 313 314 312 312 312 311 312 312 312 314 313 313 313 312 313 313 313 312 310 310 309 309 312 315 319 319 313 311 315 312 310 312 313 309 309 315 317 313 313 315 318 316 313 318 318 314 320 319 313 313 313 316 320 315 313 319 320 317 313 312 314 314 315 314 312 313
315 315 314 314 313 313 313 311 309 309 309 309 309 311 313 310 309 313 313 308 311 314 313 315 314 311 311 312 312 311 312 313 313 314 314 312 313 312 310 312 311 309 307 308 312 313 315 318 314 310 312 313 313 314 317 316 311 310 311 308 314 321 319 317 315 316 316 314 318 320 318 317 315 315 318 314 316 322 323 322 317 312 313 315 314 313 314 314
313 312 312 314 314 314 312 310 310 310 310 309 309 309 310 311 311 312 312 310 313 314 313 317 316 312 312 312 311 311 312 313 312 313 313 311 312 311 309 310 312 310 307 307 312 313 312 313 312 311 311 312 316 317 316 317 314 312 314 312 314 316 315 317 315 314 318 318 318 318 317 321 321 316 317 316 318 321 321 322 318 310 312 314 312 314 316 314
309 311 311 311 313 314 313 313 311 310 310 310 311 313 312 311 313 313 312 313 315 313 314 317 316 314 315 313 311 312 313 313 312 312 313 311 310 311 310 310 311 311 309 308 312 315 312 311 315 316 314 314 317 316 314 316 315 314 314 314 315 315 314 316 314 312 315 315 318 318 313 319 324 316 316 318 317 315 311 311 312 311 312 314 313 315 316 315
308 310 311 309 310 313 314 314 309 307 310 310 310 312 311 310 313 314 312 313 315 315 314 316 316 315 315 312 311 312 313 313 312 312 313 311 311 313 311 309 309 310 310 311 312 312 311 315 321 320 318 317 315 310 307 310 314 313 313 315 316 314 314 317 318 317 314 310 314 316 314 319 317 310 312 314 309 308 307 306 310 312 313 314 314 314 315 315
307 308 310 310 310 311 313 312 308 308 310 309 308 309 308 309 312 313 314 314 315 316 316 317 316 312 313 314 313 312 313 312 312 312 314 312 311 312 310 308 309 310 310 312 312 309 310 316 318 317 319 319 317 312 307 308 312 313 314 316 315 314 317 324 324 319 317 315 314 315 316 316 311 307 306 307 306 308 309 310 311 313 313 313 313 313 314 314
307 307 309 311 311 310 310 311 310 310 308 306 309 310 308 309 310 313 318 316 314 317 320 320 316 312 315 317 313 312 313 312 313 312 313 314 312 310 309 308 310 310 310 312 312 310 311 316 316 315 318 318 318 318 315 313 313 315 317 316 315 317 318 318 317 313 315 319 317 316 316 314 315 314 309 309 312 311 310 311 312 313 313 313 313 314 314 313
307 308 309 311 311 309 308 309 309 308 307 307 311 311 310 310 308 310 316 314 311 313 318 318 314 313 318 316 311 312 313 313 316 313 312 315 313 309 308 309 310 310 309 310 310 309 313 316 315 314 314 314 315 316 317 316 314 314 318 317 314 317 316 314 316 315 315 318 316 316 315 312 315 318 313 315 319 315 311 312 312 312 313 314 314 314 313 313
308 309 308 309 309 308 307 307 307 307 307 309 310 310 311 312 309 307 310 311 310 310 313 314 312 314 318 315 312 314 313 312 316 315 312 315 316 312 308 309 309 308 309 310 308 312 318 317 313 312 313 312 312 315 318 319 317 315 317 317 314 314 314 315 319 317 316 317 314 313 314 313 314 316 316 320 324 320 314 312 312 313 313 313 313 312 313 313
308 309 308 307 308 307 306 306 306 306 307 309 311 310 310 312 311 310 309 309 310 310 311 312 312 316 319 316 314 315 313 312 313 315 314 313 315 314 310 309 309 308 310 309 308 314 321 316 312 313 313 311 312 317 319 318 317 316 316 316 315 314 314 315 316 315 315 317 315 313 313 313 312 313 316 319 322 320 313 308 311 314 312 312 313 312 313 313
307 307 307 307 308 307 307 306 305 305 306 308 309 309 309 310 312 313 310 308 309 310 311 313 314 316 319 318 316 315 314 313 313 315 315 313 314 316 313 311 309 308 311 310 308 313 318 315 313 313 313 311 312 317 319 317 317 317 315 315 315 314 314 315 314 314 315 315 314 313 315 315 313 312 314 314 313 314 312 310 312 312 312 313 313 312 313 313
305 305 305 305 306 306 307 307 306 305 306 307 307 307 309 310 311 311 310 309 311 311 311 315 317 316 316 318 320 319 317 314 314 315 315 315 316 317 317 316 312 309 311 312 309 309 314 318 317 313 312 313 312 315 319 319 316 315 315 314 314 313 313 314 314 313 314 314 314 314 315 315 313 312 312 312 310 310 310 311 312 311 312 313 312 312 313 313
304 304 304 304 304 304 306 308 307 306 306 306 308 308 308 309 310 310 310 310 313 312 310 313 316 314 313 315 320 323 319 315 316 317 315 316 317 317 318 319 317 311 310 313 311 307 311 320 319 313 313 314 313 313 316 317 315 315 315 314 312 313 312 312 313 313 313 313 314 314 314 313 312 310 310 311 310 309 309 310 310 311 312 312 312 312 312 312
303 303 303 304 304 304 306 308 307 307 307 307 308 308 307 308 309 310 310 310 311 312 311 312 314 314 312 313 317 318 315 313 315 315 314 316 316 315 315 314 316 317 313 313 314 311 312 317 316 314 314 315 314 314 314 312 311 312 314 314 312 312 312 312 312 313 313 314 314 314 313 313 311 310 310 309 308 308 308 309 310 311 311 311 312 312 312 312
302 302 302 303 305 305 305 307 308 308 308 307 307 308 308 308 308 309 311 310 309 311 311 310 313 314 313 313 314 314 311 311 313 313 313 314 313 312 312 310 312 316 316 314 315 315 315 316 317 317 316 315 315 315 312 311 311 312 313 313 312 311 311 311 311 312 312 313 314 314 313 312 311 312 312 311 309 308 308 309 310 311 311 312 312 312 312 313
Wind_Speed
22 21 25 25 24 27 29 28 28 28 28 28 28 27 26 25 25 25 25 25 25 25 23 21 20 19 19 17 16 16 16 15 14 15 17 16 14 13 13 14 13 11 12 11 11 11 10 10 10 11 11 9 7 10 9 6 6 4 3 3 2 3 4 5 7 8 4 4 9 13 17 11 6 10 12 7 7 11 13 10 11 15 11 8 8 6 16 24
23 22 23 23 24 27 28 29 29 28 28 28 27 27 26 25 26 25 24 24 25 25 23 21 20 19 18 16 16 16 15 14 13 16 17 14 13 14 14 15 13 10 11 11 12 11 11 11 11 12 11 9 6 8 9 6 6 3 3 3 3 5 4 5 7 9 4 3 11 15 16 14 10 13 14 7 5 10 9 7 10 13 11 9 9 9 18 24
23 22 23 22 23 25 27 28 28 28 28 27 27 26 26 25 25 24 24 25 25 23 22 21 20 19 17 16 16 15 14 11 13 17 16 13 13 15 14 16 14 10 11 12 12 11 11 12 11 13 12 8 5 8 8 5 5 2 3 2 5 7 4 3 5 9 7 5 11 14 12 11 12 14 13 8 6 6 8 10 11 12 14 12 10 13 20 24
23 22 23 22 22 23 25 27 27 27 27 27 26 25 25 25 24 24 24 24 23 21 21 20 19 18 17 16 15 14 12 6 12 17 15 13 14 15 15 16 14 11 12 13 13 11 11 11 11 13 11 6 5 7 6 5 5 2 4 3 5 6 3 4 3 5 9 8 12 14 10 8 11 13 11 11 7 3 11 17 16 15 17 15 13 16 22 24
23 23 23 22 23 23 24 27 27 27 27 27 26 25 24 24 24 24 23 23 22 20 20 19 19 18 16 16 15 13 10 1 9 17 14 14 15 15 16 14 14 12 13 13 12 12 11 9 11 12 7 4 5 5 4 5 6 3 2 2 4 6 2 2 1 2 7 9 12 13 10 8 11 11 12 14 9 7 14 19 18 15 15 16 15 18 22 24
23 22 22 22 22 23 24 27 27 27 27 27 26 25 25 24 24 23 23 22 21 20 19 19 18 18 16 16 15 14 13 2 4 16 15 15 16 16 16 14 14 13 12 13 12 13 10 9 11 10 5 3 4 4 3 7 6 3 1 1 3 4 2 2 1 3 7 12 14 12 9 9 10 8 11 16 14 12 11 14 17 15 14 16 16 18 21 23
22 21 21 21 21 22 24 26 26 27 27 27 26 26 25 24 24 22 22 21 20 19 18 18 17 17 16 16 16 16 17 7 2 14 17 16 16 16 16 14 14 13 13 13 13 14 11 10 10 10 5 3 4 3 4 7 4 3 2 1 3 3 3 4 3 5 8 13 14 11 9 8 9 6 7 16 20 15 8 8 14 16 15 16 18 18 19 20
19 20 21 21 20 21 24 25 26 26 27 27 27 26 26 25 24 23 22 20 20 19 17 18 17 17 17 17 17 14 18 13 2 11 17 17 17 15 16 15 13 13 13 12 12 14 11 10 10 10 5 1 5 5 6 6 1 2 3 4 4 3 4 6 6 8 8 9 11 10 7 5 7 4 4 14 19 16 12 9 10 15 17 17 18 19 19 20
18 20 20 21 21 20 22 24 25 26 27 28 27 27 26 25 24 23 22 20 19 18 17 17 16 17 17 17 17 11 15 16 5 8 17 18 17 16 16 15 13 13 13 12 12 13 12 11 12 9 3 3 6 5 8 6 1 3 5 7 6 4 4 6 6 8 8 8 9 8 3 2 5 2 6 14 16 15 14 11 10 13 17 19 19 19 20 20
17 19 20 20 21 21 21 23 24 25 26 28 28 27 26 25 24 22 21 20 19 18 17 17 17 17 16 17 15 7 14 20 8 6 16 18 17 17 17 14 14 13 12 12 11 12 12 11 12 9 3 5 7 5 6 5 3 7 11 10 8 5 3 3 5 7 7 6 6 7 2 1 4 1 5 8 10 14 16 15 12 11 13 16 18 19 21 21
17 18 20 20 22 21 21 22 23 25 26 27 28 27 26 25 24 23 21 19 19 18 17 17 17 16 16 18 16 9 13 19 11 7 13 17 17 16 16 14 13 13 12 12 11 10 11 10 11 9 2 4 7 5 3 4 6 12 14 10 6 4 3 2 5 5 5 4 3 5 1 2 2 2 7 6 5 10 16 18 16 15 14 14 15 17 20 21
16 18 19 20 21 22 21 21 23 25 26 26 27 28 27 25 23 22 20 19 18 17 17 17 16 16 16 17 18 15 12 14 12 8 12 16 17 16 16 15 14 13 12 11 10 10 10 8 10 8 4 8 7 3 4 6 10 11 10 5 5 6 3 1 3 3 3 3 3 5 1 4 3 7 9 6 5 6 12 18 19 19 18 16 16 17 19 20
16 18 19 19 21 22 21 21 22 24 25 25 25 27 26 25 23 22 20 18 17 16 16 16 15 15 15 13 17 18 12 11 12 10 12 16 16 16 16 15 14 13 12 11 10 9 9 7 7 7 8 10 5 5 8 8 9 5 4 4 2 6 3 1 1 2 4 3 3 5 1 6 8 12 10 7 7 5 9 16 19 20 20 19 18 18 19 20
16 18 19 19 20 22 22 21 22 23 24 24 23 24 24 23 22 21 20 18 16 16 15 15 14 15 15 11 12 17 14 9 10 12 14 16 16 16 15 14 13 12 11 11 9 9 9 6 6 7 9 9 8 11 7 5 5 2 2 3 2 1 4 4 1 4 5 2 3 5 2 6 8 8 5 9 12 9 11 15 18 21 21 21 21 21 21 21
17 17 18 19 20 22 23 22 22 22 23 24 23 22 22 22 21 20 18 17 16 15 14 15 14 13 12 9 8 15 18 12 9 12 15 16 17 16 15 14 12 11 11 11 10 10 9 7 6 7 8 11 13 11 4 4 4 3 2 1 3 3 5 7 1 5 5 2 1 5 2 6 8 7 3 4 11 11 13 14 16 19 20 22 23 23 23 23
18 17 18 19 21 22 23 23 22 21 22 23 23 21 21 21 20 19 17 16 15 14 14 14 15 12 6 6 8 11 18 16 10 13 16 16 16 15 14 12 11 11 11 10 9 10 11 9 7 8 9 10 9 6 4 4 3 4 3 2 2 3 3 4 1 2 2 2 1 2 3 3 5 5 3 3 2 5 11 13 14 16 18 19 21 23 24 24
19 18 18 19 21 21 22 23 22 22 22 22 22 20 20 20 19 18 17 15 14 14 14 13 14 12 4 5 8 9 16 18 12 14 17 16 15 14 13 12 11 12 11 10 10 12 12 9 9 7 5 4 3 5 5 1 3 3 2 2 3 3 2 2 2 2 2 2 1 3 1 6 7 7 5 2 3 3 8 11 13 14 16 17 19 21 23 25
20 18 18 19 20 21 22 23 23 23 22 22 21 20 19 19 19 18 17 16 16 14 12 12 13 7 6 9 9 9 15 17 14 15 17 17 15 13 13 12 12 13 12 11 9 11 9 6 6 3 3 3 2 5 5 5 5 5 3 3 2 2 3 3 3 2 3 3 1 1 2 9 10 12 15 14 10 10 13 13 14 16 18 19 20 23 24 26
22 19 18 18 19 20 21 23 24 23 23 22 21 21 20 19 17 17 18 20 17 10 5 13 17 5 3 10 12 10 15 17 15 17 18 17 15 15 13 12 14 16 13 8 5 7 7 4 5 3 2 3 6 6 6 7 8 9 7 5 5 3 4 5 4 4 1 3 2 4 4 8 10 10 15 20 16 14 17 18 20 22 23 24 25 27 29 30
22 20 19 18 18 19 20 24 24 24 25 23 25 25 20 18 12 9 18 21 16 7 1 14 23 5 4 9 17 13 15 17 17 19 19 17 18 16 13 13 14 12 8 5 4 4 5 4 3 5 7 8 8 7 5 5 7 8 6 5 4 4 2 3 3 5 1 4 3 3 4 8 11 10 15 23 18 12 17 20 23 26 27 28 29 30 31 32
21 20 20 19 19 19 20 24 25 26 26 25 29 26 20 21 11 7 16 14 11 7 2 13 24 9 3 8 17 15 15 16 17 20 19 18 19 15 11 12 10 5 2 3 5 3 4 5 7 8 8 8 7 7 7 7 6 6 6 5 2 2 3 2 2 4 3 1 3 2 3 9 11 11 15 20 13 12 20 22 26 30 29 30 30 31 32 32
23 22 20 19 20 18 20 25 26 27 27 28 33 25 20 25 15 15 20 9 9 9 1 13 23 11 1 7 15 15 14 12 13 20 19 19 19 12 9 9 6 4 1 3 6 3 3 4 9 7 6 7 6 5 7 7 6 5 4 6 3 2 2 3 3 4 4 0 3 3 5 9 11 10 14 19 15 18 24 24 26 29 29 32 33 33 34 34
24 22 20 19 19 18 21 26 27 29 30 31 34 23 20 25 15 17 20 7 9 11 5 14 21 14 6 8 14 14 11 9 10 19 19 19 18 12 10 8 4 4 3 4 6 5 3 6 7 7 9 9 6 4 8 7 4 4 4 6 3 2 1 1 2 3 3 2 1 3 5 8 8 7 11 18 18 20 24 25 27 29 31 34 35 35 36 36
24 21 19 18 18 19 22 27 28 30 32 32 32 23 21 24 16 17 15 4 4 8 7 13 17 18 12 9 14 13 9 8 11 19 21 20 17 11 9 8 6 5 3 5 8 7 5 5 4 10 7 8 7 4 7 6 2 1 3 6 4 3 4 3 1 1 2 3 3 3 5 6 5 5 7 8 7 11 15 18 22 25 27 29 30 31 32 33
23 20 18 17 18 21 25 28 30 31 33 34 31 24 23 23 19 18 11 5 2 4 6 11 11 15 15 10 13 13 9 7 10 18 22 21 18 10 6 7 6 4 4 5 7 6 4 3 6 9 4 6 8 4 5 6 3 1 3 6 6 7 6 2 2 4 4 4 4 5 4 6 5 5 7 5 5 6 7 9 17 22 22 24 26 26 25 24
22 20 19 18 19 25 28 27 30 33 33 34 30 24 23 23 20 18 8 5 0 3 5 10 8 11 16 12 14 14 6 4 9 18 23 20 17 11 6 5 3 3 5 5 4 3 2 1 4 7 6 7 7 4 5 5 6 1 3 5 6 7 8 6 5 4 1 2 3 4 3 5 7 5 7 6 7 10 9 9 18 25 24 23 24 25 23 17
23 22 20 19 21 28 29 26 32 36 33 32 30 25 24 23 21 17 6 5 2 4 6 8 8 11 14 13 18 14 3 6 10 15 22 20 16 11 7 4 2 2 5 4 2 1 1 3 5 6 7 6 6 4 5 6 8 3 3 6 8 8 8 6 6 4 1 2 4 5 4 2 6 6 6 6 6 10 11 10 15 21 22 21 20 21 21 17
25 24 22 20 21 27 29 26 33 38 32 30 29 25 24 24 21 13 5 2 2 6 6 6 8 12 14 17 21 11 5 12 10 10 20 20 14 8 4 5 5 4 3 5 4 3 1 2 3 5 6 4 4 4 5 8 6 3 3 7 6 6 7 5 6 4 1 1 4 5 1 2 6 7 5 5 4 8 10 11 12 14 16 17 14 12 12 12
23 23 22 21 21 26 28 25 32 35 30 29 28 25 24 24 18 8 3 2 3 4 4 8 10 11 14 17 15 7 8 9 4 9 18 17 12 6 3 6 8 7 4 4 5 3 2 1 4 5 5 4 3 1 4 5 2 5 7 7 6 6 6 5 5 4 3 2 4 6 1 2 6 7 4 3 2 7 10 9 9 10 14 16 11 6 4 4
21 21 21 23 26 30 27 23 29 31 27 29 27 25 26 22 12 6 2 4 3 3 4 8 9 10 14 12 5 3 5 3 5 13 14 10 10 6 7 8 8 8 5 6 4 1 2 1 1 3 3 5 5 4 2 2 5 11 8 7 7 7 6 4 3 4 3 3 6 6 2 1 4 6 4 3 4 6 5 6 7 9 18 20 12 5 3 7
18 20 24 27 32 32 26 25 30 29 27 27 25 26 25 13 4 4 6 4 3 2 2 4 4 9 15 12 5 3 3 2 6 13 8 5 7 6 7 6 4 5 3 4 3 4 4 3 1 1 1 4 7 6 6 4 6 8 5 5 5 4 4 4 5 4 1 5 6 4 2 2 4 6 5 5 6 6 6 6 7 9 18 18 11 4 4 8
15 20 27 30 31 28 24 27 31 30 27 26 28 29 19 5 1 5 4 3 4 3 4 5 3 6 12 10 5 4 3 2 4 7 6 4 5 4 4 5 4 4 2 3 2 3 3 1 3 3 1 3 5 5 5 5 4 5 5 6 5 2 2 2 3 1 3 6 4 2 2 3 6 9 9 11 12 7 7 9 9 10 15 12 7 2 6 10
14 20 28 30 28 24 22 27 32 31 29 30 31 22 9 2 8 8 4 3 2 2 4 5 2 5 10 8 5 4 3 2 3 3 3 3 4 4 2 2 5 6 3 4 4 2 1 4 3 2 1 4 4 6 4 1 0 4 5 5 4 3 2 2 4 2 4 4 3 3 2 3 5 6 9 14 14 9 8 13 12 12 14 9 5 2 3 6
16 19 26 28 24 20 21 29 32 30 30 33 26 12 5 7 8 5 5 4 1 2 3 4 6 7 8 5 5 5 3 1 3 4 2 4 6 6 5 4 3 5 4 3 3 5 4 3 3 3 1 4 3 3 6 6 3 2 3 5 5 5 5 4 4 3 4 3 3 3 2 3 3 2 6 12 15 15 15 16 13 12 11 10 8 6 3 3
17 18 25 26 23 19 21 30 31 28 32 30 16 6 8 10 4 4 7 4 0 2 3 4 8 8 4 2 1 4 2 1 3 4 3 5 6 7 6 5 5 4 6 5 2 3 4 3 4 2 0 4 3 2 4 6 3 1 2 5 3 4 5 3 3 5 3 2 3 3 3 4 4 6 9 10 12 14 13 12 11 10 8 9 10 9 6 4
19 19 22 25 25 20 22 31 29 27 32 23 9 7 9 5 2 4 6 4 4 6 7 5 4 5 4 2 1 4 0 2 4 4 4 4 3 6 6 5 6 5 5 7 3 1 3 2 4 4 2 3 2 0 2 3 3 2 2 3 5 4 7 5 2 1 3 1 4 2 4 5 3 6 9 7 8 11 11 10 10 9 7 8 13 13 8 4
24 21 20 23 25 21 23 30 28 28 28 16 7 8 4 1 3 4 4 6 8 10 10 5 2 4 6 3 5 6 1 3 4 3 4 3 2 6 6 4 6 9 7 5 2 3 5 1 4 2 2 2 3 3 5 4 4 4 3 5 4 2 4 4 2 3 4 2 5 1 4 5 2 4 7 6 4 9 10 10 11 11 9 10 13 12 7 6
29 25 19 20 23 20 22 26 27 28 21 9 7 6 1 1 2 2 3 6 9 8 6 5 3 3 6 6 6 7 4 4 5 4 4 3 4 6 8 5 5 10 11 5 2 2 5 3 4 1 2 3 4 3 3 5 4 4 4 4 4 3 2 2 2 2 1 2 4 4 4 3 4 5 5 3 4 7 9 10 9 10 11 12 13 13 13 15
30 24 16 19 24 21 21 24 25 24 14 6 9 6 1 2 1 2 3 6 8 6 4 5 2 2 5 6 6 7 6 6 7 5 3 4 4 5 9 7 3 10 13 7 3 3 4 4 2 2 1 2 3 2 4 1 4 3 3 3 2 2 4 3 2 4 3 3 3 4 4 3 6 6 6 8 8 6 7 8 7 10 14 13 12 17 19 17
21 15 8 17 25 21 20 21 20 16 7 5 7 3 0 1 1 2 4 6 4 3 3 5 3 4 4 4 4 6 5 5 8 6 4 5 5 4 7 8 4 8 11 5 4 3 3 3 3 2 3 1 1 3 6 7 4 3 3 3 2 1 2 2 0 2 4 4 2 2 4 6 6 4 8 10 9 8 8 6 6 10 11 9 12 15 14 8
11 7 4 13 20 21 21 17 11 7 4 1 2 2 1 2 0 1 3 3 1 1 3 5 5 5 5 4 4 5 4 4 7 6 3 6 7 5 9 13 10 10 7 3 3 5 2 3 4 1 0 3 4 3 5 7 6 6 6 6 7 4 4 3 2 1 2 3 4 3 4 8 6 5 7 7 7 8 7 5 5 5 4 7 8 9 10 8
6 3 5 11 16 23 23 11 2 1 2 2 2 2 2 3 2 1 2 2 2 2 2 4 4 3 5 5 5 6 6 5 6 6 4 7 9 6 9 16 19 19 13 5 3 4 3 4 5 2 4 5 5 3 2 3 2 2 4 5 5 5 5 6 5 3 1 1 2 3 2 7 5 3 5 6 5 5 4 5 4 3 2 3 4 9 12 10
7 3 5 10 15 22 17 4 0 2 1 1 2 3 2 3 2 1 2 2 1 1 1 1 2 2 3 3 5 7 8 5 6 8 6 5 7 6 10 19 23 19 12 5 3 4 4 4 4 1 3 3 4 5 3 1 1 1 4 3 5 3 3 5 5 4 4 3 3 3 2 7 5 3 4 6 3 1 2 3 2 3 4 3 7 9 9 8
11 5 5 12 16 17 10 2 3 6 2 1 3 3 2 2 1 2 1 1 0 1 2 1 1 1 2 3 5 8 9 6 5 8 5 2 5 7 13 22 22 14 10 9 9 10 6 2 4 3 2 4 4 4 3 2 2 4 4 3 4 4 6 4 2 4 1 6 7 5 5 6 4 5 5 5 4 2 4 5 4 4 4 5 8 9 10 12
12 6 6 13 18 16 7 2 4 4 2 4 4 2 2 1 0 2 2 1 1 2 2 1 0 2 1 3 4 4 8 6 3 5 4 1 2 3 11 22 22 14 12 11 14 15 9 3 5 7 5 6 6 5 5 4 3 2 2 4 6 7 9 5 2 4 4 5 7 7 9 5 2 6 5 4 5 4 5 6 6 7 7 5 5 9 15 18
8 4 4 7 13 15 7 2 7 5 2 5 4 3 4 2 1 2 3 2 1 2 3 1 1 2 3 3 5 4 8 5 2 3 5 5 3 2 7 18 22 18 11 9 17 16 4 2 7 9 11 12 11 8 4 7 7 5 6 8 8 9 11 8 4 5 6 3 4 11 12 9 6 3 4 6 5 5 7 11 16 17 12 9 10 17 23 26
3 2 4 3 5 9 6 5 9 5 2 6 4 3 7 5 1 1 2 2 2 3 2 2 1 2 2 5 6 4 8 5 1 3 5 5 3 2 1 9 15 17 10 10 19 13 4 3 9 9 13 13 8 6 5 8 10 12 11 11 10 10 11 10 9 12 7 4 7 12 7 9 15 8 6 8 6 5 8 14 20 21 16 15 19 24 28 29
3 1 6 6 3 5 5 7 11 7 4 6 3 3 7 8 6 4 2 1 1 2 2 1 1 3 4 6 5 4 6 5 4 4 2 2 2 2 2 1 4 10 8 8 13 9 3 6 8 7 12 13 5 6 6 8 9 10 12 14 14 14 14 14 17 17 9 7 14 11 10 11 19 11 9 11 11 11 15 19 20 18 18 21 26 31 31 27
4 1 4 6 3 3 6 10 13 9 7 7 3 3 6 9 9 6 3 3 1 2 5 3 4 5 4 3 4 4 5 5 6 6 3 3 3 2 2 0 1 5 6 6 6 4 3 5 6 7 10 13 8 7 7 9 8 6 10 14 15 16 18 19 21 20 15 12 14 12 8 13 18 10 7 13 21 23 23 22 21 22 27 30 31 31 28 23
4 2 3 5 3 2 7 12 13 8 6 7 5 3 6 9 10 6 3 5 4 3 5 6 4 6 5 3 4 3 5 5 4 5 5 5 4 3 4 4 2 3 4 4 3 3 4 4 3 7 5 10 8 7 7 9 8 7 8 10 13 16 17 19 20 16 12 10 13 14 12 14 15 9 9 18 22 17 16 19 22 26 29 29 28 27 26 24
5 3 3 4 3 3 5 8 9 6 4 6 6 4 6 9 10 7 3 4 6 5 7 8 5 4 4 4 4 6 6 5 7 6 6 6 5 4 3 3 4 5 5 5 3 3 4 3 1 6 4 7 6 8 9 5 2 3 6 9 13 14 14 16 14 11 10 11 13 13 11 14 13 7 11 16 13 11 16 21 23 26 28 28 29 30 30 30
9 5 2 2 2 3 4 4 6 6 5 7 8 8 8 9 9 8 3 4 7 10 10 11 8 5 3 6 8 9 8 4 5 7 8 7 6 7 6 5 6 6 6 6 4 3 6 5 2 4 5 6 4 6 8 6 4 4 10 14 17 15 14 11 6 8 13 13 12 11 11 16 12 5 7 10 8 12 21 23 24 29 31 31 32 32 31 30
Wind_Direction
210 206 196 192 193 191 190 190 190 192 192 194 196 199 202 204 208 211 213 214 211 204 191 184 186 189 191 194 202 209 216 220 220 226 227 219 214 217 216 207 199 199 202 199 192 186 176 171 179 179 174 167 156 165 159 150 155 144 108 101 181 184 197 189 175 190 169 174 187 181 179 165 153 176 179 177 172 166 165 187 190 194 213 206 190 180 179 179
206 206 199 192 193 190 188 189 190 191 191 193 195 197 200 202 205 205 205 204 200 193 185 183 186 189 190 195 204 212 218 220 225 232 222 214 215 213 211 204 199 199 199 194 185 181 178 176 178 176 171 161 149 163 167 167 153 129 102 116 211 202 203 192 181 194 176 175 184 180 182 173 165 170 172 174 165 160 164 189 189 197 204 188 190 192 182 182
204 205 198 191 193 189 186 187 186 187 187 189 190 191 193 196 196 194 194 194 193 189 184 184 187 189 189 196 205 211 214 220 237 232 213 211 216 207 206 205 203 202 196 188 181 179 180 179 176 173 168 156 147 163 166 168 170 147 115 127 236 211 202 216 210 204 199 199 177 173 180 174 169 170 173 177 161 168 189 191 189 197 194 185 185 182 183 186
204 203 197 190 192 190 186 183 181 182 182 183 184 183 186 189 188 186 188 191 191 190 186 185 188 188 190 196 201 205 203 223 244 224 206 210 211 202 203 204 205 204 194 185 180 179 177 176 174 170 164 146 138 162 171 172 183 170 136 177 224 186 166 214 219 208 211 211 183 169 163 169 174 175 179 164 140 232 223 203 202 203 193 185 180 178 184 190
203 203 197 191 190 189 186 182 178 179 179 179 178 178 182 185 185 184 186 189 192 191 189 188 189 190 191 193 196 193 179 163 237 214 205 209 205 198 198 197 201 199 190 185 182 179 176 175 172 165 156 138 129 148 186 174 158 139 162 234 181 157 146 201 192 190 206 197 177 162 153 172 174 182 192 171 164 228 226 216 214 213 204 198 192 184 186 193
203 205 198 194 189 186 185 182 179 178 177 176 176 176 179 183 184 183 186 189 192 192 191 190 189 191 190 190 190 180 173 153 219 199 200 203 199 196 193 193 194 192 190 188 183 181 180 175 171 168 147 115 150 149 167 169 158 144 246 296 150 176 174 137 146 166 176 170 169 165 163 170 165 188 205 192 205 221 229 233 222 221 217 212 205 194 193 197
202 204 199 196 193 188 185 184 181 177 175 175 175 175 179 183 183 184 188 189 193 194 193 192 189 191 189 187 186 181 195 223 213 189 195 196 195 194 194 193 190 190 192 189 187 186 184 176 173 171 136 86 172 167 141 158 158 131 170 227 130 166 154 99 114 148 164 173 174 170 165 172 169 181 209 212 224 226 237 247 226 225 221 214 211 206 206 206
204 202 198 195 195 192 187 186 184 178 175 175 174 176 179 182 182 186 188 188 193 195 196 194 189 190 188 186 185 187 209 223 212 187 190 191 193 192 193 191 188 191 192 190 192 190 190 183 174 168 146 121 176 162 138 136 92 107 153 183 126 113 136 99 101 137 156 169 171 170 165 180 183 180 224 227 229 226 232 238 226 223 219 217 216 216 217 213
208 201 198 197 197 194 189 187 185 180 177 176 175 177 180 181 182 186 188 189 191 195 198 195 191 190 187 187 187 191 211 209 199 186 188 190 192 190 189 187 187 190 187 188 191 194 196 187 180 176 174 185 161 146 148 140 248 179 140 150 127 95 124 116 111 126 142 151 161 171 148 162 187 222 261 241 234 225 224 223 220 217 215 218 220 223 224 222
209 203 199 199 198 195 191 189 186 183 181 179 177 178 181 181 182 186 188 188 190 196 198 195 192 189 186 187 183 190 207 202 205 189 185 189 190 186 186 185 185 184 183 185 186 193 193 189 189 179 165 170 148 133 154 154 203 159 123 113 103 95 119 136 135 123 131 136 155 174 166 193 168 196 258 245 231 220 216 214 216 214 212 216 221 227 229 230
206 203 199 198 197 194 191 189 187 185 185 183 178 178 181 182 181 185 188 187 190 195 197 197 193 188 187 187 186 193 201 202 212 200 185 189 187 184 185 185 184 181 184 186 183 183 183 188 186 175 166 163 145 121 146 160 156 141 124 98 51 65 102 118 138 134 128 121 150 161 167 307 120 201 236 223 215 217 215 215 218 219 218 220 224 229 231 233
203 202 198 197 195 193 191 189 188 186 187 187 183 181 181 182 182 184 188 188 189 193 198 198 192 188 187 191 200 203 200 204 212 207 189 187 185 185 186 186 185 186 191 190 184 175 169 171 176 181 175 152 146 110 134 144 135 129 118 102 356 14 51 97 129 147 145 129 149 129 74 290 234 227 229 215 219 220 214 218 221 223 226 227 229 230 231 233
200 200 198 196 194 193 192 189 188 187 187 189 188 185 182 182 182 183 187 187 188 192 197 197 193 189 185 194 209 207 204 205 207 204 192 188 188 188 189 190 190 193 198 196 191 180 170 167 171 176 159 148 139 122 133 124 118 117 82 101 31 12 360 279 93 149 149 139 159 135 195 274 255 241 232 212 216 218 216 220 223 227 230 231 233 233 233 234
199 201 199 195 193 193 193 191 190 187 186 188 189 189 186 183 182 183 185 185 187 189 193 196 193 188 188 199 212 208 206 202 201 199 192 190 190 190 192 194 194 198 203 201 198 191 180 174 171 156 146 144 129 121 114 63 76 95 60 62 60 111 267 297 13 152 141 167 187 131 176 261 267 270 250 218 230 245 238 226 224 228 232 233 234 236 239 239
202 204 199 195 193 193 193 192 191 189 186 186 187 189 188 185 183 182 182 183 184 186 189 192 190 185 193 211 215 208 207 206 203 195 190 190 191 193 192 192 196 199 201 199 197 192 182 176 168 137 122 132 127 117 65 16 29 40 101 316 346 160 257 310 304 164 147 187 165 118 199 264 270 294 11 220 240 246 237 230 226 229 232 234 236 239 244 246
204 202 197 195 193 193 194 193 193 191 187 185 184 186 187 187 183 180 180 180 178 181 182 185 188 183 187 214 208 206 207 209 206 192 189 189 191 192 189 189 194 194 194 194 193 185 178 167 144 120 118 129 125 104 60 40 356 1 103 191 257 166 258 315 307 222 140 148 49 86 217 266 282 287 46 66 285 233 225 228 228 233 238 239 241 244 247 250
203 199 196 195 194 195 194 193 192 191 188 184 181 182 185 185 181 177 175 174 173 174 177 180 181 184 214 217 203 205 203 205 203 191 187 186 189 190 187 186 183 186 184 178 178 172 169 158 136 125 107 109 105 98 93 23 276 304 49 116 222 185 195 279 288 304 58 116 299 16 253 252 275 281 281 314 327 275 242 238 236 239 244 245 247 249 250 253
200 199 198 197 196 195 195 193 190 190 188 181 178 178 181 182 178 172 169 168 164 158 167 176 167 175 239 220 201 198 196 197 195 187 183 183 185 184 184 182 174 173 162 154 162 162 156 137 125 127 51 72 129 117 133 207 197 194 185 142 206 214 204 239 250 259 45 75 229 27 297 265 272 284 280 273 278 282 274 266 261 258 255 253 253 254 256 257
200 203 202 199 198 197 196 193 189 188 184 179 177 173 172 171 166 164 165 162 158 149 164 181 170 153 271 205 192 189 189 189 185 181 181 180 178 179 178 171 166 161 148 138 158 160 142 102 100 124 135 161 188 166 170 196 176 175 177 144 155 177 227 242 253 267 115 110 221 218 237 270 276 286 283 275 278 283 278 276 273 268 264 261 258 258 258 257
199 203 203 201 200 199 198 192 188 185 181 180 175 167 161 156 144 151 166 166 166 160 150 182 180 181 357 183 182 179 176 177 178 178 178 179 175 172 166 158 158 153 146 147 161 162 132 127 167 182 187 192 192 170 144 146 142 143 132 110 144 162 238 249 269 306 68 137 251 243 236 270 273 275 276 275 282 282 273 272 268 265 262 261 260 260 259 258
198 203 204 205 202 200 199 192 186 182 181 181 174 168 166 162 151 162 168 170 178 167 99 179 184 199 355 171 176 170 164 167 176 178 177 178 172 166 162 154 147 142 170 137 118 124 122 158 209 207 192 179 165 145 111 95 94 106 130 125 124 166 224 242 245 314 7 148 260 345 303 270 264 268 271 272 275 263 258 257 259 261 261 261 261 262 262 263
199 203 204 210 206 201 199 191 185 182 180 180 177 174 176 175 173 173 166 164 186 178 138 178 185 199 186 167 174 167 160 159 175 182 178 175 172 172 167 151 136 148 164 106 104 102 124 209 228 205 152 109 96 110 99 89 88 86 120 129 134 190 230 288 296 326 13 22 259 347 334 274 262 263 264 260 251 251 253 250 254 259 261 262 263 262 264 265
197 199 206 216 211 203 198 191 186 183 181 181 180 176 176 179 180 173 165 148 176 182 181 178 186 195 177 166 177 174 165 157 173 183 180 175 174 173 163 146 126 138 140 149 144 138 164 250 232 165 140 118 92 90 97 85 81 87 108 129 163 234 139 204 279 328 18 63 260 316 308 278 276 281 270 261 252 253 257 255 256 258 259 262 263 263 265 266
193 199 211 218 213 204 196 190 187 184 183 183 182 179 178 180 179 171 161 95 151 183 186 182 190 195 185 168 179 183 176 168 175 182 181 178 172 165 163 148 120 130 162 166 151 154 200 264 159 130 138 137 119 116 127 117 78 56 133 138 162 201 171 186 265 351 9 21 30 3 321 291 308 320 284 277 269 257 257 258 258 254 255 260 264 265 265 265
194 202 211 214 212 202 191 189 187 184 184 183 181 180 179 179 175 169 156 59 115 187 188 187 195 200 194 180 180 181 175 177 180 182 183 180 171 158 156 150 136 161 178 140 133 166 225 265 139 123 100 123 126 151 175 147 119 289 207 174 177 170 156 146 55 59 38 356 351 26 354 288 315 315 272 296 341 295 275 274 267 261 259 262 267 269 271 271
198 205 210 210 208 197 188 186 185 184 184 182 180 178 178 177 170 167 152 43 264 202 172 183 190 195 193 186 172 162 163 202 189 184 182 181 178 162 145 145 113 158 170 137 129 178 236 25 114 123 112 115 125 161 200 150 120 193 227 170 150 128 122 123 99 75 81 261 318 43 112 267 309 293 265 309 334 305 300 291 274 271 272 274 275 273 274 276
204 210 212 211 210 197 186 183 183 183 183 181 179 177 177 173 166 164 133 29 261 177 147 176 179 181 187 179 167 156 151 180 168 182 182 180 183 170 159 173 94 132 166 134 135 223 141 65 59 88 97 101 127 170 205 144 124 199 213 124 118 113 125 133 101 87 200 238 328 14 113 245 296 266 272 332 332 304 297 284 278 280 286 292 288 279 275 273
206 212 214 214 215 199 184 183 185 182 180 179 176 176 176 169 162 155 117 49 206 146 143 177 168 172 175 170 171 162 138 154 147 182 183 178 182 169 164 193 150 136 143 125 177 252 64 126 151 120 95 113 169 202 178 129 109 225 178 113 113 115 122 116 94 92 17 352 312 318 115 200 274 273 307 346 316 290 280 269 275 290 309 319 307 285 277 273
204 210 214 214 208 190 183 186 185 180 176 174 174 176 171 163 154 129 91 194 162 112 142 162 159 169 164 160 172 160 135 153 139 167 173 173 180 166 132 175 143 110 63 85 161 227 28 181 199 141 127 176 195 231 159 129 88 166 136 92 76 70 78 78 86 98 41 17 250 262 217 186 267 284 319 358 270 260 263 267 265 287 327 343 336 304 252 221
199 204 205 202 190 180 181 183 180 177 170 170 174 171 159 152 142 123 190 217 153 102 134 154 166 169 155 149 169 151 130 141 123 140 154 164 169 147 114 138 125 102 42 36 91 239 327 23 57 99 135 171 136 80 88 124 137 137 113 68 59 33 32 45 49 79 56 312 253 252 251 177 264 280 266 206 219 225 245 291 286 301 334 351 354 338 173 161
187 190 189 186 180 177 178 176 174 171 165 168 168 158 150 138 109 153 198 196 120 101 113 147 172 158 157 159 166 158 104 59 137 141 146 150 150 136 120 131 107 87 52 38 52 326 356 47 7 357 104 129 106 65 45 65 113 116 91 85 84 5 10 26 1 40 91 257 259 260 255 177 220 261 254 238 258 238 223 269 275 299 329 347 358 353 126 138
169 172 172 174 174 174 175 172 169 165 161 162 159 154 145 113 198 199 193 148 145 186 172 176 203 170 165 157 140 151 117 91 165 150 144 144 154 166 157 169 157 113 145 177 146 347 22 31 313 334 264 160 112 77 50 23 33 76 92 102 93 11 10 1 318 338 218 243 266 266 221 204 231 250 257 263 270 254 222 241 253 289 314 331 352 7 122 128
162 162 166 170 170 168 172 170 165 163 160 156 155 150 122 127 207 200 181 175 198 202 149 147 146 147 153 144 143 161 115 127 189 153 132 132 152 202 236 193 147 126 176 181 132 125 320 311 311 43 272 222 150 121 134 233 345 120 131 125 123 121 102 264 265 281 261 255 277 264 236 251 258 257 249 251 260 267 264 261 269 297 303 294 288 285 133 127
161 166 170 168 163 163 170 169 165 163 160 156 153 141 127 192 200 158 160 206 266 38 80 111 109 123 143 146 177 175 108 106 175 129 112 125 145 199 226 219 158 103 113 141 146 164 175 271 237 163 191 197 177 162 155 148 140 174 161 129 141 155 153 204 219 213 242 273 296 280 254 199 206 262 246 247 268 279 275 273 281 295 289 269 268 273 234 176
161 169 173 167 162 159 163 167 165 164 163 158 149 154 188 199 197 136 168 193 171 53 48 86 114 130 145 60 181 198 131 150 171 122 147 166 169 193 194 197 197 133 130 157 199 165 157 240 261 307 336 148 162 231 124 109 111 239 126 107 153 183 142 136 181 177 176 316 310 257 237 214 208 283 277 269 286 289 279 279 286 291 282 263 265 272 261 235
161 166 173 174 168 155 157 167 167 165 166 160 150 193 200 195 180 177 169 149 147 130 102 84 95 132 163 91 178 227 354 113 155 145 182 193 192 198 191 193 189 175 162 156 164 155 145 246 306 349 11 72 87 243 85 109 178 169 120 176 217 174 112 112 201 64 82 254 275 225 252 292 326 296 291 297 298 295 294 288 280 278 273 260 266 275 276 271
165 167 173 178 172 158 158 169 170 169 170 166 178 199 190 107 168 172 142 127 140 138 127 138 163 148 164 166 187 202 181 114 151 169 189 195 226 195 191 217 190 184 190 147 145 201 149 167 316 32 115 360 22 83 60 49 116 124 171 207 198 129 91 107 172 7 43 243 275 271 242 286 329 277 310 347 293 274 280 277 272 272 273 267 267 272 285 320
171 170 171 174 172 165 162 167 172 172 169 174 204 202 138 124 173 116 129 133 134 137 141 159 169 148 165 177 183 182 169 161 173 181 171 189 246 195 170 199 194 188 199 168 136 205 134 132 308 17 154 315 1 92 76 15 58 128 178 165 119 143 167 94 143 174 140 236 278 300 278 257 208 227 290 304 225 239 260 265 268 271 270 267 273 293 318 326
171 167 167 168 163 159 160 166 171 170 166 190 204 208 181 155 77 44 133 149 138 133 159 177 161 108 168 172 166 172 181 176 170 177 176 186 239 209 174 183 185 189 196 174 148 193 133 135 252 303 247 308 14 117 191 252 36 67 114 111 87 136 165 166 155 162 170 197 254 309 326 262 223 212 213 223 223 224 244 255 249 246 253 268 304 330 332 326
160 151 155 171 165 157 155 157 163 167 179 207 192 197 299 135 45 47 123 153 153 125 166 188 161 141 166 168 157 169 182 173 165 178 200 183 202 236 200 187 164 175 183 152 128 170 131 147 203 300 333 200 191 208 187 167 135 115 138 166 195 83 106 166 151 117 143 160 193 283 299 266 246 206 192 210 224 217 216 226 231 236 254 301 340 345 339 340
149 124 126 168 171 168 158 150 158 175 189 211 155 154 152 122 79 40 98 135 130 65 146 157 149 153 152 150 175 179 159 154 172 184 203 193 198 228 209 190 161 144 151 124 151 175 153 155 168 146 215 203 224 241 184 175 171 164 180 193 185 159 124 156 243 271 115 146 173 185 271 268 248 203 194 205 220 223 221 234 259 271 309 346 359 9 18 47
156 103 135 162 170 172 164 152 164 161 136 170 150 122 116 98 80 20 40 75 74 42 87 114 124 152 157 159 170 166 155 158 182 189 206 209 205 212 203 184 163 154 158 162 177 165 116 111 126 155 219 217 244 274 205 197 185 149 208 206 175 165 141 151 206 227 126 175 166 120 275 272 260 204 208 228 240 245 235 225 252 301 301 304 15 37 36 52
167 104 134 164 172 174 164 135 298 164 135 198 125 73 72 83 70 40 24 24 53 57 58 91 117 142 170 166 150 163 172 173 191 198 206 215 211 214 194 175 165 161 162 159 166 152 116 115 133 181 302 308 314 333 11 62 87 230 242 188 156 185 149 144 182 174 154 190 155 105 262 269 288 290 258 266 276 269 207 199 222 237 237 297 5 21 22 28
164 137 142 168 179 184 175 129 185 181 160 100 100 73 69 78 82 101 80 353 30 95 109 127 123 128 164 150 143 173 185 177 199 208 203 203 211 210 190 177 170 167 176 183 177 171 176 163 131 123 12 346 334 339 329 278 197 210 229 163 153 141 101 104 140 111 188 216 164 159 239 248 283 316 305 300 315 278 213 191 189 222 266 332 6 9 360 357
153 143 158 175 183 191 193 120 143 156 116 118 135 145 122 82 92 148 130 116 112 118 125 145 123 87 110 144 124 164 189 182 183 195 190 214 229 209 190 184 180 180 197 194 166 163 180 180 147 155 175 197 208 211 221 212 178 197 198 163 170 154 145 167 135 113 236 228 156 189 236 238 310 340 329 318 335 320 249 228 248 276 289 306 332 332 329 333
150 149 156 172 182 188 200 144 135 136 141 149 152 179 170 166 245 180 152 142 136 110 87 60 169 87 70 138 129 161 205 201 103 148 190 205 223 258 193 189 189 192 199 177 158 154 145 188 186 191 198 203 206 205 171 126 142 203 198 172 179 180 176 171 131 172 211 168 171 224 236 245 262 297 312 301 305 291 270 265 270 271 262 259 286 303 309 316
147 161 160 150 170 179 194 182 160 152 182 173 161 174 180 179 152 162 190 195 186 167 89 27 119 148 152 161 150 178 206 206 141 166 195 199 210 337 181 187 197 199 191 164 164 153 87 215 207 205 218 222 207 193 171 139 168 200 191 176 183 185 180 177 196 214 186 121 238 233 206 244 255 232 226 261 255 242 257 251 248 250 248 259 281 294 301 305
168 143 165 163 157 175 194 186 171 161 168 177 159 138 172 181 178 179 197 175 182 190 176 359 287 190 175 165 161 170 178 187 214 211 183 170 172 31 43 137 200 197 182 164 172 156 114 213 211 195 224 238 208 169 185 174 184 199 189 185 187 184 184 192 212 220 185 176 241 231 159 214 251 237 208 232 233 224 233 234 235 246 259 269 280 288 291 290
179 136 167 168 159 181 181 163 158 158 162 166 156 140 169 187 192 184 125 107 240 221 183 208 233 195 171 142 133 154 171 182 214 217 167 139 157 119 109 115 211 188 169 152 177 172 154 217 209 175 219 245 219 176 185 185 189 201 193 190 188 189 194 201 214 222 208 208 242 247 206 226 251 245 194 226 240 236 235 241 251 262 267 271 275 277 276 270
175 179 164 154 139 146 155 153 156 164 169 170 182 184 176 189 193 182 142 157 180 194 188 202 200 173 171 144 120 168 193 154 152 195 179 155 176 188 181 185 167 162 166 159 182 185 180 224 193 145 204 255 227 191 198 194 191 205 206 200 198 198 203 211 219 220 214 225 247 255 258 258 257 243 221 238 245 242 240 245 251 255 258 260 261 260 261 263
183 178 143 126 142 157 150 155 163 166 169 181 191 176 180 203 195 171 173 204 185 171 182 185 165 133 147 165 179 203 193 127 107 134 141 137 160 178 201 194 148 143 174 179 164 158 178 222 62 112 184 252 227 191 192 174 148 236 240 219 208 206 210 215 218 210 200 213 235 246 256 260 253 226 229 241 230 218 234 237 238 246 251 252 253 255 260 264
199 191 168 101 110 173 164 153 169 178 189 195 191 176 181 202 188 156 161 239 210 201 195 177 158 138 160 201 213 202 184 151 113 115 102 87 97 103 93 96 116 139 170 175 166 161 168 179 156 140 190 251 250 168 154 113 84 258 244 221 209 211 216 213 210 220 213 204 214 224 231 248 252 185 206 235 197 206 235 237 237 245 250 253 257 260 263 265